CW0630 Weather Reports


time (UTC)temp
F
wind
direction
speed
knots
gust
knots
rain 1hr
in
rain 24hr
in
rain mn
in
humidity
%
barometer
mb
20260905161019 80 32 0.0 0.0 0.00 0.27 0.01 84 1013.1
20260905151032 81 321 0.0 1.7 0.00 0.27 0.01 78 1012.7
20260905141043 83 58 0.0 0.0 0.00 0.27 0.01 75 1012.4
20260905131019 78 75 0.0 0.0 0.00 0.27 0.01 85 1011.9
20260905121016 74 234 0.0 0.9 0.00 0.27 0.01 96 1012.0
20260905111013 70 234 0.0 0.0 0.01 0.27 0.01 96 1011.7
20260905101024 70 234 0.0 0.0 0.00 0.26 0.00 96 1011.3
20260905091036 70 234 0.0 0.0 0.00 0.26 0.00 96 1010.7
20260905081036 70 234 0.0 0.0 0.00 0.26 0.00 96 1011.2
20260905071023 71 230 0.0 0.0 0.00 0.26 0.00 96 1011.6
20260905061019 71 229 0.0 0.0 0.00 0.26 0.00 96 1012.1
20260905051011 72 219 0.0 0.0 0.00 0.26 0.00 95 1013.4
20260905041024 72 217 0.0 2.6 0.00 0.26 0.00 95 1013.9
20260905031022 72 200 0.0 0.0 0.00 0.26 0.26 95 1014.0
20260905021032 73 191 5.2 5.2 0.00 0.26 0.26 94 1014.0
20260905011026 73 201 0.0 0.0 0.00 0.26 0.26 94 1013.0
20260905001013 74 178 0.0 0.0 0.01 0.26 0.26 93 1012.4
20260904231031 75 198 0.0 0.0 0.02 0.25 0.25 92 1013.9
20260904221032 76 342 0.9 0.9 0.24 0.24 0.24 89 1014.5
20260904211016 92 5 11.3 11.3 0.00 0.00 0.00 62 1012.3
20260904201025 93 178 1.7 1.7 0.00 0.00 0.00 61 1011.7
20260904191014 98 311 0.0 0.0 0.00 0.00 0.00 52 1012.7
20260904181023 97 9 0.0 1.7 0.00 0.00 0.00 55 1013.8
20260904171029 96 5 0.0 0.9 0.00 0.00 0.00 55 1014.0